Location: ?????
(55.6500°N, 37.2500°E)
Time: 03:57:29
(UTC+00:00)

SL-16 R/B - Pass Details

Date: 19 May 2025
Orbit: 985 x 1006 km, 99.7° (Epoch: 19 June)

Event Time Altitude Azimuth Distance (km) Brightness Sun altitude
Rises 23:01:02 0° 125° (SE) 3,690 5.4 -11.8°
Reaches altitude 10° 23:03:42 10° 116° (ESE) 2,746 4.8 -11.7°
Maximum altitude 23:09:09 35° 54° (NE) 1,558 4.2 -11.4°
Drops below altitude 10° 23:14:38 10° 352° (N) 2,766 5.8 -11.0°
Sets 23:17:19 0° 344° (NNW) 3,722 6.3 -10.9°
